Location: Losili
(4.4086°N, 32.7049°E)
Time: 22:32:12
(UTC+00:00)

Cosmos 1441 Rocket - Pass Details

Date: 18 September 2019
Orbit: 496 x 541 km, 81.1° (Epoch: 16 October)

Event Time Altitude Azimuth Distance (km) Brightness Sun altitude
Rises 16:17:34 0° 179° (S) 2,675 6.8 -8.4°
Reaches altitude 10° 16:19:46 10° 175° (S) 1,777 5.8 -8.9°
Maximum altitude 16:23:37 59° 95° (E) 609 3.2 -9.9°
Drops below altitude 10° 16:27:24 10° 15° (NNE) 1,746 5.8 -10.8°
Sets 16:29:31 0° 12° (NNE) 2,623 6.7 -11.4°
